STARLINK-11430, 62916

Orbit data source: Space-Track

STARLINK-11430, 62916 is a payload satellite owned by SpaceX/Seattle (US) in LEO that was launched on Sat, 08 Feb 2025 UTC via an FALCON 9 launch vehicle from the Air Force Eastern Test Range (AFETR). Payload-class satellites include a variety of spacecraft equipped with specific instruments for various scientific and technological missions. These include communications satellites like Starlink; space stations such as the ISS; scientific satellites like the Hubble; Earth observation satellites from companies like Planet Labs, Umbra, and HawkEye 360; GPS; miniature CubeSats for education and research; and military/defense satellites.

Loading next visibility...
Identifier
62916, 2025-027K
Orbit
LEO
Country
Flag of USUS
Related business
Manufacturer
SpaceX/Seattle
Mission
Operational Commercial Communications
Bus & Motor
STARLINK V2MD, Unknown motor
Mass
960 kg wet, ~910 kg dry
Launch date (UTC)
2025-02-08 (10 months ago)
Launch vehicle
FALCON 9
Launch site
Air Force Eastern Test Range (AFETR)
Object type
Payload
Rocket body
Debris
Shape & HBR
Box + 2 Pan, 18.1 m
Radar Cross Section
36.964 m², Large (>1 m²)

Expand to show TLE details & history
Last TLE update: 14 hours ago

TLE from 14 hours ago
0 STARLINK-11430
1 62916U 25027K   25341.27859651  .00448472  00000-0  32998-2 0  9990
2 62916  43.0004 185.0994 0000855 322.2273  37.8534 15.70936357 48651
Epoch: 2025-12-07T06:41Z
TLE epoch observation values (Epoch: 2025-12-07T06:41:10.738Z)
Latitude
-0.00006°
Longitude
8.51033°
Altitude
355.536 km
Speed
7.698 km/s
True Right ascension
12h 20m 23s
True Declination
0° 00' 00"
Sunlit
Object was in daylight at epoch
Visualization orbit readout
Latitude
Unknown
Longitude
Unknown
Altitude
Unknown
Speed
Unknown
Apparent Right ascension
Unknown
Apparent Declination
Unknown
Sunlit
N/A
Visualization observer readout
Local Sidereal Time
18:47:41
Azimuth
Unknown
Elevation
Unknown
Doppler factor
Unknown
Orbital elements
Apogee altitude
358.777 km
Perigee altitude
357.625 km
Semi-major axis
6,736.338 km
Eccentricity
0.00009
Inclination
43.0004°
RAAN
185.0994°
Arg. of periapsis
322.2273°
True anomaly
37.85941°
Mean anomaly
37.8534°
Eccentric anomaly
37.85641°
Mean motion
3.92561 °/min
Orbital period
91.71 mins
BSTAR
0.0032998
Loading maneuver chart data...
Computing Atmospheric mass density...
Loading historical data...
Loading historical data...
Loading historical data...
Loading historical data...
Loading historical data...
Loading historical data...
Loading historical data...

Documentation

Showing up to 5 results
|